AirNav   Pilot Hours Calculator
 
 1319 users online  

CYQG Windsor Airport
Windsor, Ontario, Canada

GOING TO WINDSOR?


FAA INFORMATION EFFECTIVE 06 OCTOBER 2022

The information below comes from the U.S. Federal Aviation Administration (FAA). The FAA is not the official source of data for facilities located outside the United States, and THESE RECORDS ARE LIKELY NOT COMPLETE OR CORRECT.

Location

FAA Identifier: CYQG
Lat/Long: 42-16-33.1111N 082-57-27.5347W
42-16.551852N 082-57.458912W
42.2758642,-82.9576485
(estimated)
Elevation: 622 ft. / 190 m (estimated)
Variation: 07W ()
Time zone: UTC -4 (UTC -5 during Standard Time)
Zip code: 48243

Airport Operations

Airport use: Open to the public
Activation date: 03/2005
Control tower: no
ARTCC: CLEVELAND CENTER
FSS: LONDON FIC FLIGHT SERVICE STATION
Attendance: 
Segmented circle: no

Airport Communications

WX ASOS at DET (8 nm N): PHONE 313-371-9696
WX AWOS-3 at ONZ (14 nm SW): 119.675 (734-692-9686)
WX ASOS at DTW (18 nm W): PHONE 734-955-5015
WX AWOS-3 at VLL (19 nm NW): 119.475 (248-288-4649)

Nearby radio navigation aids

VOR radial/distance  VOR name  Freq  Var
DXOr084/18.6DETROIT VOR/DME113.4006W
CRLr061/26.1CARLETON VOR/DME115.7003W
SVMr109/29.3SALEM VORTAC114.3003W

 
NDB name  Hdg/Dist  Freq  Var  ID
GROSSE ILE047/13.641907WRYS .-. -.-- ...

Airport Services

Runway Information

Runway 7/25

Dimensions: 9000 x 200 ft. / 2743 x 61 m
Surface: asphalt
RUNWAY 7  RUNWAY 25
Latitude: 42-16.404018N42-17.086803N
Longitude: 082-58.209487W082-56.438652W
Elevation: 622.0 ft.608.0 ft.
Traffic pattern: leftleft
Runway heading: 070 magnetic, 063 true250 magnetic, 243 true
Displaced threshold: 901 ft.1143 ft.
Touchdown point: yes, no lightsyes, no lights

Runway 12/30

Dimensions: 5150 x 150 ft. / 1570 x 46 m
Surface: asphalt
RUNWAY 12  RUNWAY 30
Latitude: 42-16.396830N42-16.030400N
Longitude: 082-58.209295W082-57.179820W
Elevation: 622.0 ft.619.0 ft.
Traffic pattern: leftleft
Runway heading: 123 magnetic, 116 true303 magnetic, 296 true
Displaced threshold: 570 ft.321 ft.
Touchdown point: yes, no lightsyes, no lights

Airport Ownership and Management from official FAA records

Ownership: Publicly-owned

Additional Remarks

FOR CD CTC DETROIT APCH AT 734-955-1404.

Instrument Procedures

There are no published instrument procedures at CYQG.

Some nearby airports with instrument procedures:

KDET - Coleman A Young Municipal Airport (8 nm N)
KONZ - Grosse Ile Municipal Airport (14 nm SW)
KDTW - Detroit Metro Wayne County Airport (18 nm W)
KVLL - Oakland/Troy Airport (19 nm NW)
KMTC - Selfridge Air National Guard Base (21 nm N)
 
Loc | Ops | Rwys | IFR | FBO | Links
Com | Nav | Svcs | Stats | Notes
Aerial photo
No photo
 
Airport distance calculator
Flying to Windsor Airport? Find the distance to fly.

From to CYQG

Sunrise and sunset
Times for 07-Oct-2022
 Local
(UTC-4)
 Zulu
(UTC)
Morning civil twilight07:0811:08
Sunrise07:3611:36
Sunset19:0323:03
Evening civil twilight19:3123:31

Current date and time
Zulu (UTC)  07-Oct-2022 21:21:18
Local (UTC-4)  07-Oct-2022 17:21:18
 
METAR
CYQG 072000Z AUTO 31011G17KT 9SM OVC041 10/01 A3025 RMK SLP250
KDET 
8nm N 
072053Z 32011KT 9SM OVC039 10/01 A3026 RMK AO2 SLP248 T01000011 53001
KONZ 
14nm SW 
072055Z AUTO 34010KT 10SM OVC042 10/M04 A3026 RMK AO2 T00971044
CXHA 
15nm S 
072000Z AUTO 32005KT 10/01 RMK AO1 SLP246 T00960012 53001
KDTW 
17nm W 
072053Z 34009KT 10SM OVC035 09/01 A3027 RMK AO2 SLP251 T00940006 58003
KVLL 
19nm NW 
072055Z AUTO 34009KT 10SM OVC036 09/00 A3028 RMK AO2 T00890003
TAF
CYQG 071740Z 0718/0818 33012G22KT P6SM BKN030 BECMG 0718/0720 34012KT FM080000 34008KT P6SM SCT030 FM080400 32006KT P6SM FEW030 BECMG 0810/0812 26007KT BECMG 0812/0814 25012KT FM081400 25012KT P6SM BKN030 BECMG 0816/0818 25012G22KT RMK FCST BASED ON AUTO OBS. NXT FCST BY 080000Z
KDET 
8nm N 
071720Z 0718/0818 34011G18KT P6SM SCT035 BKN045 FM080100 32006KT P6SM SCT045 FM080600 VRB03KT P6SM SKC FM081400 27008KT P6SM SCT035 FM081600 25012G20KT P6SM FEW045
KDTW 
17nm W 
071720Z 0718/0824 34011G18KT P6SM SCT035 BKN045 FM080100 32006KT P6SM SCT045 FM080600 VRB03KT P6SM SKC FM081300 27008KT P6SM SCT035 FM081600 25014G22KT P6SM FEW045
NOTAMs
Click for the latest NOTAMs
NOTAMs are issued by the DoD/FAA and will open in a separate window not controlled by AirNav.

 

 
 

FBO, Fuel Providers, and Aircraft Ground Support

  
 Business Name 
 
 Contact 
 
 Services / Description 
 
Fuel Prices
 
Comments
  
Gateway Aviation Windsor 519-971-1462
no information available

If you are affiliated with Gateway Aviation Windsor and would like to show here your services, contact info, web link, logo, and more, click here
100LL Jet A
FS $12.90 $10.59 
 Updated 27-May-2022
 
   write
FS=Full service
Update Fuel Prices
 

Would you like to see your business listed on this page?

 If your business provides an interesting product or service to pilots, flight crews, aircraft, or users of the Windsor Airport, you should consider listing it here.  To start the listing process, click on the button below
 
Add a business
 

Other Pages about Windsor Airport

Update a link
 
Copyright © AirNav, LLC. All rights reserved. Privacy Policy  Contact